Russellville, AR

7:07 AM CDT on August 26, 2016 (GMT -0500)
Russellville Regional

Weather History for KRUE - December, 2012

Change the Weather History Date:

Saturday, December 1, 2012

  Actual Average (KHOT) Record (KHOT)
Temperature  
Mean Temperature 65 °F -  
Max Temperature 73 °F 57 °F 76 °F (1970)
Min Temperature 57 °F 36 °F 19 °F (1964)
Growing Degree Days 15 (Base 50)    
Moisture  
Dew Point 56 °F    
Average Humidity 73    
Maximum Humidity 84    
Minimum Humidity 60    
Precipitation  
Precipitation 0.00 in - - ()
Sea Level Pressure  
Sea Level Pressure 30.05 in    
Wind  
Wind Speed 3 mph (SSE)    
Max Wind Speed 12 mph    
Max Gust Speed 21 mph    
Visibility 10 miles    
Events      
Averages and records for this station are not official NWS values.
T = Trace of Precipitation, MM = Missing Value Source: NWS Daily Summary

Daily Weather History Graph

Daily Weather History Graph

Search for Another Location

Airport or City:

Trip Planner

Search our weather history database for the weather conditions in past years. The results will help you decide how hot, cold, wet, or windy it might be!

Date:

Astronomy

Dec. 01, 2012 Rise Set
Actual Time 7:03 AM CST 5:00 PM CST
Civil Twilight 6:35 AM CST 5:27 PM CST
Nautical Twilight 6:03 AM CST 5:59 PM CST
Astronomical Twilight 5:33 AM CST 6:29 PM CST
Moon 7:48 PM CST (12/1) 9:17 AM CST (12/1)
Length of Visible Light 10h 52m
Length of Day
9h 56m
Waning Gibbous, 91% of the Moon is Illuminated
Dec 1
Waning Gibbous
Dec 6
Last Quarter
Dec 13
New
Dec 19
First Quarter
Dec 28
Full

Hourly Weather History & Observations

Time (CST) Temp. Dew Point Humidity Pressure Visibility Wind Dir Wind Speed Gust Speed Precip Events Conditions
12:53 AM 60.1 °F 53.1 °F 78% 30.10 in 10.0 mi East 3.5 mph - N/A   Overcast
1:53 AM 60.1 °F 53.1 °F 78% 30.10 in 10.0 mi Calm Calm - N/A   Overcast
2:27 AM 60.8 °F 53.6 °F 77% 30.12 in 10.0 mi Calm Calm - N/A   Overcast
3:07 AM 60.8 °F 51.8 °F 72% 30.12 in 10.0 mi Calm Calm - N/A   Overcast
3:53 AM 60.1 °F 52.0 °F 75% 30.10 in 10.0 mi East 3.5 mph - N/A   Overcast
4:45 AM 59.0 °F 51.8 °F 77% 30.10 in 10.0 mi Calm Calm - N/A   Mostly Cloudy
4:53 AM 57.9 °F 52.0 °F 81% 30.09 in 10.0 mi Variable 4.6 mph - N/A   Mostly Cloudy
5:53 AM 57.9 °F 52.0 °F 81% 30.09 in 10.0 mi Variable 3.5 mph - N/A   Overcast
6:48 AM 57.2 °F 51.8 °F 82% 30.11 in 10.0 mi ESE 5.8 mph - N/A   Overcast
6:53 AM 57.9 °F 52.0 °F 81% 30.10 in 10.0 mi Calm Calm - N/A   Overcast
7:53 AM 59.0 °F 53.1 °F 81% 30.10 in 10.0 mi East 5.8 mph - N/A   Overcast
8:53 AM 61.0 °F 53.1 °F 75% 30.09 in 10.0 mi Variable 4.6 mph - N/A   Overcast
11:53 AM 70.0 °F 57.9 °F 65% 30.05 in 10.0 mi SSW 9.2 mph - N/A   Overcast
1:04 PM 73.4 °F 59.0 °F 61% 30.03 in 2.5 mi South 8.1 mph 18.4 mph N/A   Haze
1:11 PM 71.6 °F 57.2 °F 60% 30.03 in 6.0 mi South 10.4 mph 18.4 mph N/A   Haze
1:24 PM 71.6 °F 57.2 °F 60% 30.02 in 10.0 mi Variable 5.8 mph 16.1 mph N/A   Overcast
1:53 PM 71.1 °F 57.9 °F 63% 29.99 in 10.0 mi South 10.4 mph - N/A   Overcast
3:53 PM 73.0 °F 59.0 °F 61% 29.97 in 10.0 mi South 11.5 mph 20.7 mph N/A   Mostly Cloudy
4:53 PM 72.0 °F 59.0 °F 64% 29.98 in 10.0 mi South 5.8 mph - N/A   Mostly Cloudy
5:53 PM 69.1 °F 57.9 °F 68% 29.98 in 10.0 mi Variable 3.5 mph - N/A   Clear
6:53 PM 66.9 °F 57.9 °F 73% 29.98 in 10.0 mi SE 3.5 mph - N/A   Mostly Cloudy
7:53 PM 69.1 °F 60.1 °F 73% 29.99 in 10.0 mi Variable 3.5 mph - N/A   Mostly Cloudy
8:53 PM 68.0 °F 60.1 °F 76% 30.00 in 10.0 mi Calm Calm - N/A   Scattered Clouds
9:53 PM 66.9 °F 60.1 °F 79% 30.01 in 10.0 mi Calm Calm - N/A   Overcast
10:53 PM 63.0 °F 57.9 °F 84% 30.02 in 10.0 mi Calm Calm - N/A   Mostly Cloudy
11:53 PM 63.0 °F 57.9 °F 84% 30.01 in 10.0 mi SE 3.5 mph - N/A   Clear